[[{"header":{"parameterUnit":"m.s-1","parameterCategory":1,"la1":30.2991,"la2":30.254,"lo1":-89.0895,"lo2":-89.0444,"dy":0.0017,"dx":0.0017,"nx":28,"ny":28,"refTime":"2024-03-07T03:00:00:Z","depth":0,"parameterNumber":2,"parameterNumberName":"U-component_of_WINDS"},"data":[0,0,0,0,0,0,0,0,0,0,0,0,0,0,0,0,0,0,0,0,0,0,0,0,0,0,0,0,0,0,0,0,0,0,0,0,0,0,0,0,0,0,0,0,0,0,0,0,0,0,0,0,0,0,0,0,0,0,-2.7097,-2.7097,0,-2.7086,-2.7085,-2.7085,-2.7015,-2.7014,-2.7012,-2.701,-2.7001,-2.7002,-2.7003,0,0,0,0,0,0,0,0,0,0,0,0,0,-2.7063,-2.7064,-2.7097,-2.7097,-2.7097,-2.7086,-2.7085,-2.7085,-2.7016,-2.7014,-2.7012,-2.701,-2.7,-2.7002,-2.7003,0,0,0,0,0,0,0,0,0,0,0,0,0,-2.7067,-2.7064,-2.7097,-2.7061,-2.7058,-2.7086,-2.7085,-2.7085,-2.7016,-2.7014,-2.7011,-2.7009,-2.7,-2.7002,-2.7004,-2.7067,0,0,-2.701,-2.7011,0,0,0,0,0,0,0,0,-2.7067,-2.7068,-2.7066,-2.7064,-2.706,-2.7049,-2.707,-2.7079,-2.7017,-2.7032,-2.701,-2.7007,-2.7019,-2.7019,-2.7023,-2.7066,-2.7066,-2.701,-2.7011,-2.7012,-2.7012,0,0,0,0,0,0,0,-2.7067,-2.7069,-2.7093,-2.7067,-2.7062,-2.7046,-2.7044,-2.7071,-2.704,-2.703,-2.7025,-2.7025,-2.7017,-2.7021,-2.7022,-2.7066,-2.701,-2.7012,-2.7013,-2.7014,-2.7161,-2.7164,0,0,0,0,0,0,-2.7071,-2.7069,-2.7093,-2.7092,-2.7057,-2.7049,-2.7046,-2.7055,-2.7039,-2.7035,-2.7027,-2.7022,-2.7019,-2.702,-2.7021,-2.7094,-2.7012,-2.7014,-2.7015,-2.7158,-2.7162,-2.7165,0,0,0,0,0,0,-2.7071,-2.7074,-2.7094,-2.7079,-2.708,-2.7052,-2.7063,-2.7056,-2.706,-2.7037,-2.7031,-2.7037,-2.7017,-2.7019,-2.7056,-2.7093,-2.7015,-2.7016,-2.7155,-2.7159,-2.7163,-2.7241,0,0,0,0,0,0,-2.707,-2.7074,-2.7097,-2.708,-2.7081,-2.7128,-2.7065,-2.7058,-2.7064,-2.7057,-2.7045,-2.704,-2.7015,-2.7053,-2.7058,-2.7094,-2.7018,-2.7152,-2.7157,-2.7162,-2.7235,-2.7247,-2.7257,0,0,0,0,0,-2.7069,-2.712,-2.7099,-2.7102,-2.7109,-2.713,-2.7131,-2.71,-2.7067,-2.709,-2.7075,-2.704,-2.7089,-2.7058,-2.7062,-2.71,-2.7149,-2.7156,-2.7162,-2.723,-2.7245,-2.7257,0,0,0,0,0,0,-2.7142,-2.7117,-2.7093,-2.714,-2.7137,-2.7118,-2.7146,-2.7117,-2.7124,-2.7118,-2.708,-2.7078,-2.7121,-2.7114,-2.7081,-2.7161,-2.7113,-2.712,-2.7163,-2.7177,-2.7188,-2.7189,-2.702,0,0,0,0,0,-2.7163,-2.7181,-2.7159,-2.7202,-2.7202,-2.7175,-2.7182,-2.7159,-2.7156,-2.7155,-2.7142,-2.7141,-2.7156,-2.7166,-2.7178,-2.7234,-2.7231,-2.7262,-2.7273,-2.7283,-2.729,-2.7319,-2.7333,-2.7185,-2.7185,-2.7185,0,0,-2.7208,-2.7196,-2.721,-2.7216,-2.7212,-2.7232,-2.7174,-2.7198,-2.7213,-2.7158,-2.7192,-2.7184,-2.718,-2.7227,-2.7247,-2.7222,-2.733,-2.7291,-2.7298,-2.73,-2.7327,-2.7341,-2.7353,-2.7189,-2.7188,-2.7188,0,0,-2.7299,-2.7292,-2.7328,-2.7325,-2.7319,-2.73,-2.7309,-2.7294,-2.7286,-2.732,-2.728,-2.7298,-2.7324,-2.7323,-2.7326,-2.7419,-2.7387,-2.7424,-2.7483,-2.7512,-2.7524,-2.7534,-2.7568,-2.758,-2.7431,-2.7431,-2.7431,0,-2.7356,-2.7384,-2.735,-2.7377,-2.7381,-2.7332,-2.7369,-2.7368,-2.7366,-2.7371,-2.7344,-2.7376,-2.737,-2.7416,-2.7439,-2.7443,-2.7452,-2.7425,-2.7525,-2.7535,-2.7544,-2.7575,-2.7588,-2.7436,-2.7435,-2.7435,-2.7434,0,-2.7453,-2.7474,-2.7504,-2.7503,-2.7511,-2.7542,-2.7514,-2.7527,-2.7503,-2.7488,-2.7524,-2.7515,-2.7525,-2.7535,-2.7512,-2.7578,-2.7563,-2.7531,-2.7483,-2.7563,-2.7592,-2.7604,-2.7442,-2.744,-2.7439,-2.7438,0,0,-2.7589,-2.757,-2.7582,-2.7581,-2.7572,-2.7587,-2.7617,-2.7626,-2.7638,-2.7639,-2.7664,-2.7688,-2.7658,-2.7662,-2.7639,-2.7665,-2.774,-2.763,-2.7629,-2.765,-2.7813,-2.7837,-2.7851,-2.7719,-2.7721,-2.7723,-2.7813,0,-2.7677,-2.7726,-2.7697,-2.775,-2.7769,-2.7724,-2.775,-2.7748,-2.7736,-2.7751,-2.7737,-2.7754,-2.7714,-2.7716,-2.7739,-2.7726,-2.7772,-2.7719,-2.7743,-2.7744,-2.7744,-2.7866,-2.7891,-2.7976,-2.7824,-2.7826,-2.7827,0,-2.7785,-2.7791,-2.7846,-2.7833,-2.784,-2.7864,-2.7871,-2.7886,-2.7883,-2.7872,-2.7877,-2.7848,-2.7878,-2.7831,-2.7871,-2.7836,-2.7844,-2.784,-2.7842,-2.7843,-2.779,-2.787,-2.8003,-2.8016,-2.7845,-2.7843,-2.7842,0,-2.7879,-2.79,-2.7936,-2.7937,-2.7924,-2.7942,-2.7937,-2.7931,-2.7939,-2.7946,-2.795,-2.7961,-2.7966,-2.7975,-2.7951,-2.7919,-2.7996,-2.7946,-2.7988,-2.7989,-2.8005,-2.8005,-2.8141,-2.8012,-2.8012,-2.8011,-2.8011,0,-2.7979,-2.8015,-2.7978,-2.8,-2.8039,-2.8007,-2.8047,-2.8037,-2.8033,-2.8054,-2.8016,-2.8036,-2.8002,-2.802,-2.8001,-2.8038,-2.8041,-2.8034,-2.8028,-2.8037,-2.8038,-2.8041,-2.8035,-2.8015,-2.8014,-2.8013,-2.8013,0,-2.809,-2.8067,-2.8103,-2.8087,-2.8084,-2.8114,-2.8101,-2.8121,-2.8107,-2.8133,-2.8137,-2.8114,-2.8133,-2.811,-2.8126,-2.8113,-2.8164,-2.815,-2.8165,-2.8161,-2.8204,-2.82,-2.8347,-2.8365,-2.8225,-2.8226,-2.8227,0,-2.8155,-2.8182,-2.8169,-2.818,-2.8177,-2.8195,-2.8202,-2.8172,-2.8182,-2.8181,-2.8202,-2.8217,-2.8228,-2.826,-2.8245,-2.8258,-2.8244,-2.8294,-2.8245,-2.8254,-2.8245,-2.8243,-2.8246,-2.8304,-2.8306,-2.8307,-2.8309,0,-2.8274,-2.8261,-2.8273,-2.8282,-2.8292,-2.8298,-2.8301,-2.8312,-2.828,-2.8293,-2.8311,-2.832,-2.8337,-2.8353,-2.8361,-2.8358,-2.8329,-2.8324,-2.8335,-2.8343,-2.8351,-2.8348,-2.8192,-2.8321,-2.832,-2.8319,-2.8318,-2.8318,-2.8364,-2.8386,-2.838,-2.8395,-2.8394,-2.8398,-2.8416,-2.8404,-2.8418,-2.8429,-2.8411,-2.8434,-2.8432,-2.8441,-2.8441,-2.8459,-2.8437,-2.8452,-2.8456,-2.846,-2.8467,-2.8349,-2.8461,-2.846,-2.846,-2.846,-2.8459,0,-2.8481,-2.8475,-2.8489,-2.8494,-2.8507,-2.8478,-2.848,-2.8492,-2.8513,-2.8513,-2.8524,-2.8545,-2.8561,-2.8548,-2.8561,-2.8579,-2.8566,-2.8583,-2.8581,-2.8581,-2.8485,-2.8475,-2.8593,-2.8593,-2.8593,-2.8593,-2.8593,-2.8593,-2.8543,-2.8578,-2.8565,-2.86,-2.8594,-2.8616,-2.862,-2.8623,-2.8623,-2.8649,-2.8661,-2.8652,-2.8648,-2.866,-2.8674,-2.867,-2.8677,-2.8699,-2.869,-2.8601,-2.8588,-2.8575,-2.8565,-2.8701,-2.8701,-2.8785,-2.8785,-2.8786]},{"header":{"parameterUnit":"m.s-1","parameterCategory":1,"la1":30.2991,"la2":30.254,"lo1":-89.0895,"lo2":-89.0444,"dy":0.0017,"dx":0.0017,"nx":28,"ny":28,"refTime":"2024-03-07T03:00:00:Z","depth":0,"parameterNumber":3,"parameterNumberName":"V-component_of_WINDS"},"data":[0,0,0,0,0,0,0,0,0,0,0,0,0,0,0,0,0,0,0,0,0,0,0,0,0,0,0,0,0,0,0,0,0,0,0,0,0,0,0,0,0,0,0,0,0,0,0,0,0,0,0,0,0,0,0,0,0,0,1.4435,1.4435,0,1.4453,1.4454,1.4454,1.4468,1.4468,1.4468,1.4468,1.4486,1.4486,1.4487,0,0,0,0,0,0,0,0,0,0,0,0,0,1.4412,1.4412,1.4435,1.4435,1.4435,1.4453,1.4454,1.4454,1.4468,1.4468,1.4468,1.4469,1.4486,1.4486,1.4487,0,0,0,0,0,0,0,0,0,0,0,0,0,1.4425,1.4412,1.4435,1.4445,1.4446,1.4453,1.4454,1.4454,1.4468,1.4468,1.4468,1.4469,1.4486,1.4486,1.4487,1.4486,0,0,1.4488,1.4488,0,0,0,0,0,0,0,0,1.4424,1.4426,1.4443,1.4444,1.4445,1.4459,1.4452,1.4464,1.4468,1.446,1.4468,1.4469,1.4477,1.4478,1.4481,1.4486,1.4487,1.4488,1.4489,1.4489,1.4489,0,0,0,0,0,0,0,1.4423,1.4425,1.4442,1.4443,1.4445,1.4448,1.445,1.4454,1.4467,1.446,1.4461,1.4463,1.4477,1.448,1.4481,1.4487,1.4488,1.4489,1.4489,1.4489,1.4494,1.4494,0,0,0,0,0,0,1.4421,1.4424,1.4442,1.4443,1.4435,1.4448,1.4451,1.4454,1.4467,1.4469,1.4463,1.4464,1.4479,1.4481,1.4482,1.4482,1.4489,1.4489,1.4489,1.4494,1.4494,1.4494,0,0,0,0,0,0,1.4421,1.4422,1.4441,1.4434,1.4437,1.4448,1.4452,1.4454,1.4457,1.4469,1.4471,1.4464,1.448,1.4481,1.4485,1.4483,1.4489,1.449,1.4494,1.4494,1.4494,1.4482,0,0,0,0,0,0,1.442,1.4422,1.4422,1.4434,1.4437,1.4444,1.4452,1.4455,1.4458,1.446,1.447,1.4472,1.448,1.4484,1.4485,1.4484,1.449,1.4495,1.4494,1.4494,1.4483,1.4482,1.4481,0,0,0,0,0,1.4419,1.4417,1.4422,1.4424,1.4437,1.4443,1.4445,1.4454,1.4458,1.4458,1.4466,1.4472,1.4483,1.4484,1.4486,1.4484,1.4495,1.4494,1.4494,1.4483,1.4482,1.4481,0,0,0,0,0,0,1.4404,1.4419,1.4424,1.4426,1.4434,1.4446,1.4446,1.4452,1.4458,1.4459,1.447,1.4472,1.4475,1.448,1.4481,1.4485,1.449,1.449,1.4481,1.448,1.4479,1.4478,1.4491,0,0,0,0,0,1.4401,1.4406,1.4418,1.4419,1.4423,1.4434,1.4437,1.4444,1.4451,1.4454,1.4462,1.4469,1.4474,1.4477,1.4483,1.4484,1.4487,1.4484,1.4483,1.4482,1.4481,1.4483,1.4482,1.4493,1.4493,1.4493,0,0,1.4395,1.4404,1.4406,1.4417,1.4423,1.4427,1.4436,1.444,1.4444,1.4455,1.4459,1.4465,1.4473,1.4476,1.4478,1.4481,1.4479,1.4481,1.448,1.4481,1.4483,1.4482,1.4481,1.4492,1.4492,1.4492,0,0,1.4387,1.4393,1.4395,1.4402,1.4412,1.4419,1.442,1.4431,1.4436,1.444,1.4449,1.4453,1.4462,1.4468,1.4472,1.4467,1.4473,1.4468,1.4462,1.4464,1.4463,1.4463,1.4461,1.4461,1.4468,1.4468,1.4468,0,1.4378,1.4385,1.4395,1.4399,1.4404,1.4415,1.4417,1.4423,1.4434,1.4437,1.444,1.4452,1.4458,1.4463,1.4462,1.4464,1.4466,1.4467,1.4463,1.4462,1.4462,1.446,1.446,1.4467,1.4467,1.4467,1.4467,0,1.4374,1.4379,1.4379,1.439,1.4395,1.4398,1.4409,1.4412,1.4419,1.4426,1.4431,1.4439,1.4447,1.4448,1.4454,1.4454,1.4456,1.4461,1.4466,1.446,1.4459,1.4459,1.4466,1.4467,1.4467,1.4467,0,0,1.4356,1.4374,1.4374,1.4379,1.4391,1.4395,1.4399,1.4407,1.441,1.4418,1.4421,1.4429,1.4434,1.4438,1.4445,1.4447,1.4443,1.4451,1.4452,1.445,1.4444,1.4441,1.444,1.4447,1.4447,1.4447,1.4444,0,1.4349,1.4357,1.4367,1.4372,1.4377,1.4388,1.4391,1.4399,1.4406,1.4411,1.4419,1.4424,1.443,1.4433,1.4435,1.4443,1.4442,1.4443,1.4451,1.4451,1.4449,1.444,1.4436,1.4432,1.4443,1.4443,1.4443,0,1.4343,1.4351,1.4356,1.4369,1.4371,1.4374,1.4383,1.4387,1.4397,1.4402,1.4408,1.4415,1.442,1.4425,1.4432,1.4432,1.4436,1.444,1.444,1.4442,1.4447,1.4441,1.4431,1.4431,1.4443,1.4443,1.4443,0,1.433,1.4342,1.4347,1.4351,1.4366,1.4368,1.4374,1.4383,1.4388,1.4396,1.4399,1.4406,1.4411,1.4417,1.4426,1.4429,1.4432,1.4438,1.4437,1.4436,1.4437,1.4437,1.4428,1.4439,1.4439,1.4439,1.4439,0,1.4322,1.4325,1.4341,1.4344,1.4348,1.4359,1.4363,1.437,1.4378,1.4383,1.4393,1.4397,1.4409,1.4415,1.4422,1.4427,1.4429,1.4433,1.4435,1.4432,1.4432,1.4435,1.4436,1.4439,1.4439,1.4439,1.4439,0,1.4309,1.4319,1.4326,1.434,1.4343,1.4345,1.4357,1.436,1.4368,1.4374,1.4376,1.4388,1.4396,1.4406,1.4416,1.4421,1.4425,1.4428,1.4422,1.4423,1.4422,1.4422,1.4415,1.4415,1.4425,1.4425,1.4425,0,1.4303,1.4306,1.432,1.4324,1.433,1.4337,1.4342,1.4353,1.4358,1.437,1.4372,1.438,1.4387,1.4398,1.4407,1.4415,1.4419,1.4416,1.442,1.4418,1.4419,1.4419,1.442,1.4415,1.4415,1.4414,1.4414,0,1.4292,1.4298,1.4305,1.4314,1.432,1.4328,1.4336,1.4339,1.4352,1.4357,1.4365,1.437,1.4381,1.4389,1.4399,1.4405,1.4412,1.4413,1.4413,1.4411,1.4408,1.441,1.4419,1.4413,1.4413,1.4413,1.4413,1.4413,1.4283,1.4286,1.4297,1.4305,1.4312,1.432,1.4324,1.4333,1.434,1.435,1.4357,1.4364,1.4374,1.4388,1.4394,1.44,1.4403,1.4403,1.4403,1.4403,1.4402,1.4406,1.4401,1.4402,1.4402,1.4402,1.4402,0,1.4273,1.4281,1.4288,1.43,1.4306,1.4313,1.4322,1.4327,1.4334,1.4343,1.435,1.4359,1.4367,1.4378,1.4387,1.439,1.4393,1.4392,1.4392,1.4393,1.4399,1.4398,1.4389,1.4389,1.4389,1.4389,1.4389,1.4389,1.4268,1.4275,1.4282,1.4292,1.4299,1.4308,1.4313,1.432,1.4327,1.4337,1.4344,1.4352,1.4361,1.4371,1.4379,1.4382,1.4385,1.4382,1.4386,1.4392,1.4393,1.4394,1.4393,1.4383,1.4383,1.438,1.438,1.438]}]]